Regional Weather Roundup
Issued by NWS

Home | Current Version | Previous Version | Text Only | Print | Product List | Glossary On
Versions: 1 2 3 4 5 6 7 8 9 10 11 12 13 14 15 16 17 18 19 20 21 22 23 24 25 26 27 28 29 30 31 32 33 34 35 36 37 38 39 40 41 42 43 44 45 46 47 48 49 50
000
ASUS43 KDTX 250410
RWRMI
MICHIGAN HOURLY REGIONAL WEATHER ROUNDUP
NATIONAL WEATHER SERVICE DETROIT/PONTIAC MI
1200 AM EDT FRI JUL 25 2014

NOTE: "FAIR" INDICATES FEW OR NO CLOUDS BELOW 12,000 FEET WITH NO
SIGNIFICANT WEATHER AND/OR OBSTRUCTION TO VISIBILITY.

MIZ047>049-052>055-059>063-066>070-074>076-081>083-250500-
SOUTHEAST LOWER MICHIGAN

CITY           SKY/WX    TMP DP  RH WIND       PRES   REMARKS
ADRIAN         CLEAR     57  51  80 CALM      30.09R
ALMA           CLEAR     58  52  80 W3        30.07S
ANN ARBOR      CLEAR     50  47  89 SW3       30.08R
BAD AXE        CLEAR     53  48  84 CALM      30.07S
DETROIT CITY   CLEAR     64  50  60 SE3       30.07F
DETROIT        PTCLDY    66  53  63 CALM      30.08R
FLINT          CLEAR     56  51  84 CALM      30.08R
GROSSE ILE     CLEAR     64  55  72 CALM      30.06R
HILLSDALE      CLEAR     54  53  96 CALM      30.09S
HOWELL         CLEAR     55  51  86 CALM      30.08S

CITY           SKY/WX    TMP DP  RH WIND       PRES   REMARKS
JACKSON        CLEAR     57  54  89 CALM      30.08S
LAMBERTVILLE   PTCLDY    57  52  82 CALM      30.09R
LANSING        CLEAR     56  52  86 CALM      30.08S
LAPEER         NOT AVBL
MASON          PTCLDY    54  52  91 SE3       30.08S
MONROE         MOCLDY    59  54  82 CALM      30.07R
MT. CLEMENS    CLEAR     59  48  66 CALM      30.06F
PONTIAC        PTCLDY    60  51  72 CALM      30.08R
PORT HOPE        N/A     58  49  72 VRB3      30.04F
PORT HURON     CLEAR     48  48 100 CALM      30.08S
TRI CITIES     CLEAR     62  52  69 S5        30.07R
YPSILANTI      CLEAR     62  51  67 W5        30.08R
$$
MIZ043>046-050>051-056>058-064>065-071>073-077>080-250500-
SOUTHWEST LOWER MICHIGAN

CITY           SKY/WX    TMP DP  RH WIND       PRES   REMARKS
BATTLE CREEK   CLEAR     61  51  70 W3        30.09F
BENTON HARBOR  PTCLDY    52  50  93 E5        30.07F
BIG RAPIDS     PTCLDY    54  48  80 CALM      30.06S
COLDWATER      CLEAR     60  54  80 CALM      30.08F
HOLLAND        CLEAR     56  50  80 CALM      30.07F
GRAND RAPIDS   PTCLDY    59  51  75 CALM      30.08F
KALAMAZOO      CLEAR     59  49  69 CALM      30.08F
MARSHALL       CLEAR     56  53  89 S7        30.08F
MUSKEGON       PTCLDY    56  49  77 CALM      30.05F
$$
MIZ016>042-250500-
NORTHERN LOWER MICHIGAN

CITY           SKY/WX    TMP DP  RH WIND       PRES   REMARKS
ALPENA         CLEAR     53  51  93 CALM      30.03F
BEAVER ISLAND  CLEAR     56  51  84 SW6       30.03R
BELLAIRE       CLEAR     50  48  94 CALM      30.03S
CADILLAC       CLEAR     48  47  98 CALM      30.05F
CHARLEVOIX     CLEAR     53  49  85 CALM      30.06R
FRANKFORT      CLEAR     53  49  84 CALM      30.03F
GAYLORD        CLEAR     55  49  80 CALM      30.05S
GRAYLING       CLEAR     49  49 100 CALM      30.06F
HARBOR SPRINGS CLEAR     54  50  86 CALM      30.03S
HOUGHTON LAKE  CLEAR     52  50  93 CALM      30.06S
MANISTEE       PTCLDY    50  46  87 E3        30.04F
OSCODA         CLEAR     56  51  82 CALM      30.03S
PELLSTON       CLEAR     48  47  96 CALM      30.03S
TRAVERSE CITY  CLEAR     58  49  72 SW3       30.02F
$$
MIZ007>008-015-250500-
EASTERN UPPER MICHIGAN

CITY           SKY/WX    TMP DP  RH WIND       PRES   REMARKS
KINROSS        CLEAR     57  52  82 SW6       30.01F
MACKINAC ISLAN CLEAR     56  51  82 SW8       30.02S
NEWBERRY       CLEAR     55  46  73 SW12      30.00S
S. S. MARIE    CLEAR     54  48  80 CALM      30.00F
$$
MIZ004>006-011>014-085-250500-
CENTRAL UPPER MICHIGAN

CITY           SKY/WX    TMP DP  RH WIND       PRES   REMARKS
MANISTIQUE     CLEAR     57  49  75 SW5       30.01S
ESCANABA       PTCLDY    63  52  67 SW6       30.00S
MENOMINEE      MOCLDY    61  46  59 SW7       30.01S
SAWYER-GWINN   PTCLDY    59  52  78 W5        30.01S
$$
MIZ001>003-009>011-084-250500-
WESTERN UPPER MICHIGAN

CITY           SKY/WX    TMP DP  RH WIND       PRES   REMARKS
IRON MOUNTAIN  MOCLDY    62  52  69 SE3       30.00R
HOUGHTON       CLEAR     57  51  80 CALM      29.96F
COPPER HARBOR    N/A     60  48  64 CALM      29.95F
IRONWOOD       CLOUDY    66  55  68 CALM      29.94F
$$

ABBREVIATIONS USED IN REMARKS
   TC - TEMPERATURE IN CELSIUS
  WCI - WIND CHILL INDEX
   HX - HEAT INDEX
  VSB - VISIBILITY



USA.gov is the U.S. government's official web portal to all federal, state and local government web resources and services.